Regional Weather Roundup
Issued by NWS

Home | Current Version | Previous Version | Graphics & Text | Print | Product List | Glossary Off
Versions: 1 2 3 4 5 6 7 8 9 10 11 12 13 14 15 16 17 18 19 20 21 22 23 24 25 26 27 28 29 30 31 32 33 34 35 36 37 38 39 40 41 42 43 44 45 46 47 48 49 50

000
ASUS43 KDMX 270203
RWRIA

WEATHER ROUNDUP FOR IOWA
NATIONAL WEATHER SERVICE DES MOINES IA
900 PM CDT TUE JUL 26 2016

NOTE: "FAIR" INDICATES FEW OR NO CLOUDS BELOW 12,000 FEET WITH NO
SIGNIFICANT WEATHER AND/OR OBSTRUCTIONS TO VISIBILITY.

* - THESE STATIONS ARE NOT NWS STATIONS...THUS NOT UNDER NWS
QUALITY CONTROL.  THEY ALSO DO NOT REPORT WEATHER SUCH
AS PRECIPITATION OR FOG.

IAZ001>003-012>014-020>022-031>034-043>046-270300-
   NORTHWEST IOWA

CITY           SKY/WX    TMP DP  RH WIND       PRES   REMARKS
CARROLL *      CLEAR     72  70  94 CALM      30.02S
CHEROKEE *     CLEAR     76  70  82 SE6       30.01R
DENISON *      CLEAR     73  68  83 E6        30.00S
LE MARS *      CLEAR     77  68  73 S7        30.00S
SHELDON *      CLEAR     73  70  88 S9        29.98S
SIOUX CITY     CLEAR     77  67  71 S6        30.00R
SPENCER        CLOUDY    76  67  73 S8        30.00F
STORM LAKE *   CLEAR     73  68  83 SE7       30.03S
$$

IAZ055>058-069>071-079>083-090>094-270300-
   SOUTHWEST IOWA

CITY           SKY/WX    TMP DP  RH WIND       PRES   REMARKS
ATLANTIC *     PTCLDY    79  66  65 SE6       30.01R HX  81
CLARINDA *       N/A     73  72  94 MISG      30.02S
COUNCIL BLFS * PTCLDY    77  70  78 SE3       30.01R
CRESTON *      CLEAR     72  68  88 SE3       30.04S
HARLAN  *      CLEAR     75  70  83 SE6       30.04F
LAMONI         CLEAR     76  66  71 E3        30.02F
RED OAK *      PTCLDY    77  68  73 E5        30.01R
SHENANDOAH *   PTCLDY    75  72  88 SE5       30.00S
$$

IAZ047>049-059>061-072>074-084-270300-
   CENTRAL IOWA

CITY           SKY/WX    TMP DP  RH WIND       PRES   REMARKS
AMES           CLEAR     72  68  87 S5        30.01S
ANKENY *         N/A    N/A N/A N/A MISG        N/A
BOONE *        CLEAR     72  68  88 CALM      30.02R
CHARITON *       N/A    N/A N/A N/A MISG        N/A
DES MOINES     PTCLDY    80  66  62 SE8       29.99F HX  82
GRINNELL*      CLEAR     74  67  79 CALM      30.03F
KNOXVILLE *    CLEAR     77  66  69 E3        30.01S
MARSHALLTOWN   CLEAR     73  68  84 SE7       30.01F
NEWTON *       CLEAR     75  68  78 SE5       30.01F
PELLA *        CLEAR     74  66  78 CALM      30.02F
PERRY *          N/A     73  70  90 SE3       30.02R
$$

IAZ004>006-015-016-023>025-035-036-270300-
   NORTH CENTRAL IOWA

CITY           SKY/WX    TMP DP  RH WIND       PRES   REMARKS
ALGONA *       CLEAR     77  70  78 S6        30.02S
ESTHERVILLE    PTCLDY    74  69  85 S8        29.99F
FORT DODGE *   CLEAR     75  66  73 SE3       30.03R
MASON CITY     CLEAR     73  68  84 S5        30.03S
FOREST CITY *    N/A     72  70  94 S3        30.02R
IOWA FALLS *     N/A     75  67  77 SE5       30.02F
$$

IAZ007>011-017>019-026>030-037>042-050>054-066-270300-
   NORTHEAST IOWA

CITY           SKY/WX    TMP DP  RH WIND       PRES   REMARKS
CEDAR RAPIDS   CLEAR     73  68  84 SE3       30.02S
CHARLES CITY * CLEAR     75  72  88 S6        30.02F
CLINTON *      CLEAR     75  70  84 CALM      30.02F
DECORAH *      CLEAR     75  70  83 CALM      30.01S
DUBUQUE        CLEAR     75  67  76 CALM      30.04S
MONTICELLO *   CLEAR     72  70  94 CALM      30.02S
WATERLOO       CLEAR     77  65  66 S5        30.00F
$$

IAZ064-065-067-068-078-270300-
   EAST CENTRAL IOWA

CITY           SKY/WX    TMP DP  RH WIND       PRES   REMARKS
DAVENPORT      CLEAR     72  67  84 NE5       30.02F
IOWA CITY      CLEAR     78  66  66 CALM      30.03S HX  80
MT. PLEASANT * CLEAR     76  71  83 CALM      30.01S
MUSCATINE *    CLEAR     77  72  83 CALM      30.01S
QUAD CITIES    CLEAR     75  67  76 CALM      30.00F
$$

IAZ062-063-075>077-085>089-095>099-270300-
   SOUTHEAST IOWA

CITY           SKY/WX    TMP DP  RH WIND       PRES   REMARKS
BURLINGTON     CLEAR     73  69  87 N3        30.00F
FAIRFIELD *    CLEAR     73  70  88 CALM      30.02S
KEOKUK *       CLEAR     77  72  83 CALM      30.00S
CENTERVILLE *    N/A     70  68  94 CALM      30.04S
OTTUMWA        CLEAR     73  67  81 E3        30.01S
WASHINGTON *   CLEAR     73  72  94 CALM      30.03S
$$

ABBREVIATIONS USED IN REMARKS
   TC - TEMPERATURES IN CELSIUS
  WCI - WIND CHILL INDEX
   HX - HEAT INDEX
  VSB - VISIBILITY
$$





USA.gov is the U.S. government's official web portal to all federal, state and local government web resources and services.